カタログに戻る

STARLINK-5297

運用中通信VLEO
NORAD 54158·PAYLOAD·🇺🇸 United States

打ち上げ Oct 28, 2022 から Vandenberg Space Force Base

Loading…

次のパス (今後24時間)

TLE

最新Source: CelesTrak SupGP

元期: Sep 14, 2026, 21:25 UTC

1 54158C 22141B   26257.89284722  .00734210  00000+0  27695-1 0  2570
2 54158  53.1601 243.5047 0001246  86.8186 122.2925 15.26145366    19

AllMySatでSTARLINK-5297をリアルタイム追跡

Download on the App Store